Regional Weather Roundup
Issued by NWS

Home | Current Version | Previous Version | Graphics & Text | Print | Product List | Glossary Off
Versions: 1 2 3 4 5 6 7 8 9 10 11 12 13 14 15 16 17 18 19 20 21 22 23 24 25 26 27 28 29 30 31 32 33 34 35 36 37 38 39 40 41 42 43 44 45 46 47 48 49 50

000
ASUS43 KTOP 301159
RWRKS

WEATHER ROUNDUP FOR KANSAS
NATIONAL WEATHER SERVICE GOODLAND KS
700 AM CDT TUE AUG 30 2016

NOTE:  "FAIR" INDICATES FEW OR NO CLOUDS BELOW 12,000 FEET WITH NO
SIGNIFICANT WEATHER AND/OR OBSTRUCTIONS TO VISIBILITY.

KSZ001>006-013>018-027>032-041>047-301300-
NORTHWEST KANSAS

CITY           SKY/WX    TMP DP  RH WIND       PRES   REMARKS
GOODLAND       FOG       57  57 100 S6        30.26S VSB 1/2
6HR MIN TEMP:  57; 6HR MAX TEMP:  62;

HAYS           FAIR      66  57  72 NE3       30.21R
HILL CITY      CLOUDY    66  65  96 CALM      30.22R
6HR MIN TEMP:  65; 6HR MAX TEMP:  67;

RUSSELL        MOCLDY    66  66 100 NE5       30.19R FOG
6HR MIN TEMP:  66; 6HR MAX TEMP:  68;

$$

KSZ061>065-074>080-084>089-301300-
SOUTHWEST KANSAS

CITY           SKY/WX    TMP DP  RH WIND       PRES   REMARKS
DODGE CITY     FOG       67  66  97 N3        30.22R VSB 1/2
6HR MIN TEMP:  67; 6HR MAX TEMP:  70; 6HR PCP:  0.36;

ELKHART          N/A     65  61  87 W3          N/A
GARDEN CITY    CLOUDY    65  64  97 E5        30.22S FOG
6HR MIN TEMP:  65; 6HR MAX TEMP:  68;

GREAT BEND     CLOUDY    66  61  82 NE5       30.19S
LIBERAL        MOCLDY    66  63  88 N3        30.24R
$$

KSZ066>073-081>083-090>101-301300-
SOUTHEAST KANSAS

CITY           SKY/WX    TMP DP  RH WIND       PRES   REMARKS
CHANUTE        FAIR      73  70  90 NE5       30.14R
6HR MIN TEMP:  71; 6HR MAX TEMP:  75;

COFFEYVILLE    FAIR      71  71 100 CALM      30.13R
6HR MIN TEMP:  70; 6HR MAX TEMP:  73;

HUTCHINSON     CLOUDY    72  69  90 N7        30.17R
6HR MIN TEMP:  72; 6HR MAX TEMP:  73;

MEDICINE LODGE   N/A     68  67  96 CALM      30.16R
NEWTON         CLOUDY    70  69  97 NE5       30.17S
PARSONS        FAIR      71  69  93 NE3       30.15R
6HR MIN TEMP:  68; 6HR MAX TEMP:  72;

WICHITA INTL   MOCLDY    74  71  91 NE6       30.15R
6HR MIN TEMP:  72; 6HR MAX TEMP:  77;

WICHITA JABRA  FAIR      70  70 100 CALM      30.15S FOG
6HR MIN TEMP:  69; 6HR MAX TEMP:  74;

WINFIELD       FAIR      71  68  90 CALM      30.16R
6HR MIN TEMP:  70; 6HR MAX TEMP:  76;

$$

KSZ007>012-019>026-033>040-048>060-102>105-301300-
NORTHEAST KANSAS

CITY           SKY/WX    TMP DP  RH WIND       PRES   REMARKS
CONCORDIA      FAIR      68  66  93 SE5       30.19R
6HR MIN TEMP:  68; 6HR MAX TEMP:  71; 6HR PCP:  0.77;

EMPORIA        CLOUDY    72  71  97 E3        30.17R FOG
6HR MIN TEMP:  71; 6HR MAX TEMP:  73; 6HR PCP:  0.02;

LAWRENCE       FAIR      70  70 100 SE5       30.14F
6HR MIN TEMP:  69; 6HR MAX TEMP:  75;

MANHATTAN      FAIR      70  68  93 N3        30.16S
6HR MIN TEMP:  69; 6HR MAX TEMP:  73;

OLATHE IND     FAIR      71  70  96 E3        30.15S
6HR MIN TEMP:  70; 6HR MAX TEMP:  78; 6HR PCP:  2.20;

OLATHE EXE     FAIR      69  69 100 CALM      30.15S
6HR MIN TEMP:  69; 6HR MAX TEMP:  74; 6HR PCP:  2.22;

SALINA         LGT RAIN  72  70  93 N7        30.19R
6HR MIN TEMP:  71; 6HR MAX TEMP:  73; 6HR PCP:  0.01;

TOPEKA BILLARD FAIR      70  68  93 CALM      30.14F
6HR MIN TEMP:  69; 6HR MAX TEMP:  75;

TOPEKA FORBES  FAIR      72  69  90 CALM      30.15S
6HR MIN TEMP:  72; 6HR MAX TEMP:  77;

$$



USA.gov is the U.S. government's official web portal to all federal, state and local government web resources and services.